User: anonymous   Login
Location: Caltech
(34.1382°N, 118.1253°W)
Time: 14:16:11
(UTC-08:00)
Language:

Oscar 19 - Orbit

View from above orbital plane
View from above orbital plane
View from above satellite
View from above satellite

Ground track
Ground track

The orbit data is extracted from the following two-line orbital elements,

1 20442U 90005G   14353.78900369  .00000385  00000-0  15748-3 0  1316
2 20442 098.4971 287.8761 0010904 323.6109 036.4332 14.32652415301254
Epoch (UTC): 19 December 2014 18:56:09
Eccentricity: 0.0010904
inclination: 98.4971°
perigee height: 775 km
apogee height: 790 km
right ascension of ascending node: 287.8761°
argument of perigee: 323.6109°
revolutions per day: 14.32652415
mean anomaly at epoch: 36.4332°
orbit number at epoch: 30125

The dashed part of the orbit path shows where the satellite is in the earth's shadow,  

DLR